STARLINK-1854 (47141 NORAD) Tracking and Keplerian Element Data

This shows tracking and keplerian element data for the satellite.

Feedback or suggestion? Click here.




ElementValue
Catalog47141
NameSTARLINK-1854
Epoch Orbit1588
Epoch Day60.91667824
Epoch Year2021
RAAN243.7398
Inclination53.0574
Eccentricity0.0001407
Argument of Perigee69.5545
Mean Anonmoly136.1014
Mean Motion15.0690029
Decay Rate-0.00667981
L11 47141U 20088V 21060.91667824 -.00667981 00000-0 -47302-1 0 9993
L22 47141 53.0574 243.7398 0001407 69.5545 136.1014 15.06900290 15885

Live tracking and technical data element details for STARLINK-1854 (NORAD 47141). STARLINK-1854 can be tracked NOW for your location showing map with azimuth and elevation plus other details from your city location.

Track the satellite on the map from your city or location and see movement details for azimuth, elevation, latitude, longitude, range, height, and movement on the map or in text.







IsCatalogInMostPopularTable: catalog: 47141, numindb: 28
Update: records affected: 1



GetName: 47141 STARLINK-1854

Hit Count: updated at: Tue, 02 Mar 2021 14:37:20 GMT